Regional Weather Roundup
Issued by NWS

Home | Current Version | Previous Version | Text Only | Print | Product List | Glossary Off
Versions: 1 2 3 4 5 6 7 8 9 10 11 12 13 14 15 16 17 18 19 20 21 22 23 24 25 26 27

000
ASUS45 KBOI 302110
RWRID

IDAHO REGIONAL WEATHER ROUNDUP
NATIONAL WEATHER SERVICE BOISE ID
300 PM MDT MON MAY 30 2016

NOTE: "FAIR" INDICATES FEW OR NO CLOUDS BELOW 12000 FEET
WITH NO SIGNIFICANT WEATHER AND/OR OBSTRUCTIONS TO VISIBILITY

IDZ012-014-302200-
SOUTHWEST IDAHO


CITY           SKY/WX    TMP DP  RH WIND       PRES   REMARKS
BOISE          MOSUNNY   72  34  24 NW20      30.11F
CALDWELL       MOSUNNY   73  37  27 W14       30.13F
MOUNTAIN HOME  MOSUNNY   76  42  28 NW21      30.11S
$$

IDZ016-017-302200-
SOUTHCENTRAL IDAHO


CITY           SKY/WX    TMP DP  RH WIND       PRES   REMARKS
BURLEY         MOSUNNY   70  30  22 W17G25    30.11F
JEROME         PTSUNNY   70  29  21 W22G32    30.12F
TWIN FALLS     MOSUNNY   70  29  21 W18G24    30.13F
$$

IDZ019>023-302200-
SOUTHEAST IDAHO


CITY           SKY/WX    TMP DP  RH WIND       PRES   REMARKS
IDAHO FALLS    CLOUDY    71  34  25 S21G30    30.07F
POCATELLO      CLOUDY    72  29  20 SW22G29   30.11F
REXBURG        PTSUNNY   67  39  35 SW9       30.08S
$$

IDZ006-010-011-018-031-032-302200-
CENTRAL IDAHO MOUNTAINS


CITY           SKY/WX    TMP DP  RH WIND       PRES   REMARKS
MCCALL         SUNNY     62  27  26 W10       30.17F
HAILEY         SUNNY     68  36  30 SW12G18   30.11F
STANLEY          N/A     64  24  21 CALM      30.18S
SALMON         CLOUDY    66  28  24 N9        30.10F
CHALLIS        PTSUNNY   69  22  16 NE10G22   30.10F
$$

IDZ002-004-006-007-026-302200-
NORTHERN IDAHO


CITY           SKY/WX    TMP DP  RH WIND       PRES   REMARKS
LEWISTON       SUNNY     72  31  22 NW6       30.19F
LOWELL           N/A     73  35  25 VRB5      30.17F
COEUR D`ALENE  SUNNY     68  36  30 W7G17     30.18S
MULLAN PASS    SUNNY     52  23  32 NW9G17    30.24R
$$




USA.gov is the U.S. government's official web portal to all federal, state and local government web resources and services.